Weather Roundup
Issued by NWS Corpus Christi, TX

Home | Current Version | Previous Version | Text Only | Print | Product List | Glossary On
Versions: 1 2 3 4 5 6 7 8 9 10 11 12 13 14 15 16 17 18 19 20 21 22 23 24 25 26 27 28 29 30 31 32 33 34 35 36 37 38 39 40 41 42 43 44 45 46 47 48 49 50
000
ASUS44 KCRP 020910
HRRCRP

SOUTH TEXAS REGIONAL WEATHER ROUNDUP
NATIONAL WEATHER SERVICE CORPUS CHRISTI TX
400 AM CDT MON MAY 02 2016


TXZ229>244-021000-
...CORPUS CHRISTI AREA OBSERVATIONS...

CITY           SKY/WX    TMP DP  RH WIND       PRES   REMARKS
CORPUS CHRISTI CLOUDY    76  69  79 N15       29.84F
NAS CORPUS CHR CLOUDY    78  76  93 N14       29.83F
ROCKPORT       LGT RAIN  77  75  93 N8        29.85S FOG
KINGSVILLE NAS CLOUDY    74  69  85 N9        29.83F
ALICE          MOCLDY    73  64  73 N12       29.85F
FALFURRIAS     CLOUDY    75  66  74 N8        29.84R
$$

...VICTORIA AREA OBSERVATIONS...

CITY           SKY/WX    TMP DP  RH WIND       PRES   REMARKS
VICTORIA       CLOUDY    69  67  93 N14       29.88S FOG
BEEVILLE       CLOUDY    73  64  74 N13G18    29.89R
PLEASANTON     CLOUDY    69  52  55 N10G16    29.96R
SAN ANTONIO    CLOUDY    69  51  52 N16G24    29.97R
$$

...LAREDO AREA OBSERVATIONS...

CITY           SKY/WX    TMP DP  RH WIND       PRES   REMARKS
LAREDO         CLOUDY    73  60  63 N13       29.92S
COTULLA        CLOUDY    71  59  65 N7        29.93F
DEL RIO        CLOUDY    63  48  58 NW14G21   30.05R
MCALLEN        CLOUDY    80  74  81 N6        29.83S
HEBBRONVILLE   CLOUDY    73  64  71 N9        29.91R
$$

...OTHER TEXAS OBSERVATIONS...

CITY           SKY/WX    TMP DP  RH WIND       PRES   REMARKS
BROWNSVILLE    CLOUDY    76  76 100 N5        29.81F FOG
HOUSTON        CLOUDY    71  70  96 N8        29.91S
COL. STATION   CLOUDY    65  57  75 N9        29.96S
AUSTIN         CLOUDY    64  56  75 N12       29.99R
WACO           CLOUDY    62  50  64 N10       30.02F
FORT WORTH     CLOUDY    58  51  78 N14       30.04F
WICHITA FALLS  PTCLDY    49  45  86 NW12      30.15R
LUBBOCK        CLOUDY    44  37  76 N13       30.21R
EL PASO        CLEAR     46  35  65 NE8       30.19S
$$

...MARINE OBSERVATIONS...

STATION/POSITION TIME  SKY/WX   TEMP    WIND        PRES    VSBY  WAVE   SWELL
                                AIR SEA DIR/SP/G                  HT/PER HT/PER
                 (UTC)          (F)     (DEG/KT/KT) (MB)    (MI)  (FT/S) (FT/S)
PORT ARANSAS     0900            79 80   60/ 10/ 11 1010.7F
BUOY 90 E PORT A 0850            77 78   90/ 16/ 19 1009.6F         7/ 8   3/ 8
BUOY 45 SE BAFFI 0850            78 79  120/  6/  6 1009.9R         4/ 7   3/ 7
BUOY 200 E PT IS 0850                                 N/A           5/ 8
BUOY 15 E GALVES 0850            72 76  150/  8/ 12 1011.2R         7/ 8   7/ 8
$$



USA.gov is the U.S. government's official web portal to all federal, state and local government web resources and services.